Location: Belmont
(13.0833°N, 59.6000°W)
Time: 01:16:56
(UTC+00:00)

Cosmos 2084 Rocket - Pass Details

Date: 17 September 2019
Orbit: 572 x 610 km, 62.8° (Epoch: 20 October)

Event Time Altitude Azimuth Distance (km) Brightness Sun altitude
Rises 23:25:31 0° 215° (SW) 2,827 7.3 -22.0°
Reaches altitude 10° 23:27:48 10° 221° (SW) 1,932 6.5 -22.6°
Maximum altitude 23:32:02 49° 296° (WNW) 782 4.4 -23.6°
Enters shadow 23:35:58 12° 10° (N) 1,824 5.9 -24.5°
